Theta_e
300 300 300 300 300 301 301 301 301 302 301 302 302 303 302 302 301 303 304 305 307 307 307 300 301 304 317 319 321 320 319 318 316 316 314 302 303 301 302 302 302 302 305 304 303
300 300 300 300 301 301 301 302 301 301 302 302 302 302 302 302 302 302 301 306 309 308 309 307 311 316 316 315 316 316 318 318 308 308 306 302 302 301 300 301 300 301 302 302 301
300 300 300 300 300 301 301 301 302 302 302 302 302 302 302 302 303 301 301 306 310 309 312 313 314 314 312 310 306 306 317 304 302 302 302 301 300 300 299 299 301 302 301 301 301
299 300 300 300 300 301 301 302 302 302 302 302 302 303 302 302 303 301 302 304 310 310 311 312 312 313 307 307 303 307 301 301 299 301 300 300 300 300 299 302 303 302 301 301 301
299 299 300 300 300 301 301 301 302 302 302 302 302 303 303 302 301 301 302 302 308 308 310 312 312 310 305 301 302 303 299 299 299 299 299 299 299 299 299 302 302 301 301 301 301
299 299 300 300 300 300 301 301 301 302 301 302 301 302 302 301 301 301 302 303 304 306 308 309 310 310 303 299 301 298 298 298 299 299 299 299 298 298 301 302 301 301 302 301 302
299 299 299 300 300 300 301 301 301 301 302 301 301 301 301 300 300 301 302 302 303 303 305 306 306 305 301 298 299 299 299 299 298 298 299 298 298 297 301 301 301 301 301 301 302
299 299 299 299 300 300 300 301 301 301 301 301 301 301 301 300 300 301 301 302 302 302 303 302 302 302 300 299 298 298 297 300 298 297 298 298 302 300 302 301 300 301 301 301 302
300 300 300 300 300 300 301 301 301 301 301 301 301 301 300 300 301 301 301 302 303 303 302 302 302 300 299 297 297 297 300 299 300 296 296 298 301 300 300 299 300 301 302 302 302
300 300 300 300 301 300 301 301 301 301 301 300 301 300 300 300 300 301 302 302 303 303 303 302 301 296 295 297 301 300 299 299 299 297 296 298 298 298 301 300 301 302 302 302 302
300 300 300 300 301 301 301 301 301 301 300 300 299 299 299 299 300 301 302 302 302 302 299 298 299 299 298 297 297 297 299 300 298 296 296 296 296 299 299 299 298 299 301 302 302
301 302 301 301 301 301 300 301 300 300 298 298 298 298 298 299 299 300 302 301 301 299 298 298 299 297 297 297 298 299 300 300 298 296 297 296 298 300 299 297 299 301 300 301 302
304 303 302 302 301 300 299 299 299 299 297 298 298 297 298 298 298 299 301 300 298 298 297 299 297 297 297 298 300 298 300 299 299 296 295 294 300 302 300 297 299 300 300 300 300
307 307 307 304 301 300 299 298 299 301 294 299 298 298 298 299 298 299 300 300 297 296 295 296 296 297 298 298 297 301 297 297 298 299 302 295 304 302 300 298 297 300 301 302 301
312 311 310 307 303 300 299 299 300 301 302 299 297 297 298 298 297 299 299 299 297 297 297 298 296 298 299 298 296 298 296 297 297 297 298 298 300 302 299 303 302 300 302 302 302
314 314 313 311 306 303 299 299 301 301 301 296 296 296 298 297 297 298 299 299 297 296 295 295 295 296 296 295 296 295 297 297 296 298 301 298 299 303 303 304 301 301 302 302 303
316 315 314 314 312 307 301 300 301 301 296 296 294 296 297 297 297 296 298 297 298 297 297 297 296 294 294 296 296 297 299 303 304 302 306 296 298 303 301 301 300 301 301 302 303
315 315 315 314 314 311 301 298 296 295 294 295 296 296 298 295 297 296 297 294 296 296 292 298 300 295 293 295 297 296 298 302 302 303 302 296 300 304 299 299 300 301 302 303 304
315 315 315 315 314 311 302 294 302 296 298 296 296 294 291 295 294 296 295 293 295 295 299 295 298 293 293 293 295 296 297 295 296 290 297 299 299 300 300 298 299 301 302 304 303
315 314 315 314 314 309 301 305 295 298 296 295 299 296 292 291 294 296 294 295 297 295 292 296 297 294 294 293 293 295 294 298 295 299 298 300 300 304 305 305 302 300 301 303 304
312 309 310 313 311 302 306 304 296 298 297 296 297 294 295 292 291 289 295 294 295 294 292 288 295 294 293 292 294 294 294 292 293 297 300 299 302 297 300 302 302 299 302 302 304
309 303 309 310 298 296 300 296 301 295 297 295 296 296 296 294 292 290 294 295 296 294 296 293 292 294 294 292 291 293 295 295 299 297 293 297 299 298 297 297 298 299 302 304 304
307 306 305 306 306 299 296 296 296 295 295 294 295 294 295 295 296 293 294 294 295 294 294 292 292 291 295 292 290 289 293 295 293 293 293 299 301 298 296 296 300 299 302 303 303
305 303 298 297 299 304 304 301 302 297 297 295 295 294 295 296 294 293 295 295 294 294 296 295 291 296 302 300 291 290 289 293 292 292 296 298 301 301 302 302 300 301 303 302 301
303 302 302 298 298 301 304 306 306 305 294 294 293 295 295 295 295 293 294 293 293 294 296 291 291 289 289 292 289 290 288 292 294 297 298 303 298 300 300 301 301 300 299 300 301
300 302 300 301 300 300 303 308 309 308 296 296 296 294 295 302 302 297 295 293 295 293 293 289 290 286 288 292 292 293 293 291 294 296 296 297 297 299 300 300 299 299 299 301 302
296 298 300 303 300 301 304 305 307 307 305 307 297 299 295 297 301 304 298 297 297 295 295 290 288 289 294 292 292 295 295 293 294 294 297 297 300 301 301 300 299 300 300 300 301
Wind_Speed
9 9 9 10 11 9 9 10 11 10 11 8 13 8 8 8 11 9 5 8 6 7 9 2 10 16 13 7 7 6 4 3 7 7 3 5 4 4 3 3 4 5 6 7 8
8 7 8 9 10 11 10 11 11 11 11 10 11 10 6 7 6 11 12 8 6 8 5 8 14 14 6 5 3 4 3 7 3 3 4 6 4 6 4 4 5 8 10 10 10
7 7 8 9 10 10 11 10 10 9 9 11 10 9 9 3 2 10 11 4 3 5 5 8 8 5 5 4 4 2 3 5 4 4 5 4 3 4 5 5 12 17 15 14 12
7 7 8 10 11 11 11 11 10 9 9 8 10 6 7 3 1 10 10 2 1 2 3 4 2 2 4 4 4 4 4 3 4 2 2 2 1 4 12 5 6 10 13 14 13
8 9 9 9 10 11 11 12 11 10 8 8 8 7 2 4 6 8 10 2 3 2 3 3 2 4 5 4 3 4 2 5 4 3 1 3 4 6 16 17 10 14 16 16 14
10 9 11 11 11 10 10 11 10 9 8 7 6 7 4 3 4 7 7 4 2 3 3 5 5 8 9 4 4 4 6 6 3 3 1 1 2 2 5 18 22 18 18 17 16
12 12 11 12 12 11 11 11 10 8 9 6 6 4 3 4 4 4 6 6 7 5 7 9 10 4 7 5 7 7 3 1 3 4 1 4 6 11 18 5 23 23 20 19 17
13 14 14 14 13 13 11 11 10 7 6 5 4 2 3 2 2 3 4 7 9 9 10 10 10 10 5 12 5 4 4 1 0 6 0 1 8 2 6 15 22 25 24 22 20
14 15 15 15 15 14 13 11 9 5 4 3 2 2 2 1 1 2 2 3 5 7 8 6 3 6 6 5 4 5 2 4 2 3 4 3 8 3 4 13 20 27 29 27 23
14 14 15 16 15 13 13 11 7 5 4 4 3 2 2 1 1 1 2 4 2 4 3 2 4 4 4 4 4 5 3 3 4 2 2 4 16 14 23 17 27 28 31 32 30
13 14 16 16 15 13 12 8 4 3 2 2 1 2 1 1 2 2 3 4 4 3 3 5 5 2 1 0 2 4 3 3 2 2 3 5 9 20 16 22 28 34 35 36 36
15 15 14 15 14 12 11 5 5 1 5 3 2 1 1 1 3 3 3 4 3 3 2 4 2 3 2 1 2 2 2 3 3 1 1 4 16 21 10 12 26 31 32 36 39
15 16 16 15 10 12 9 9 7 7 2 2 1 1 1 1 2 2 2 4 5 4 2 4 4 3 2 2 2 1 1 0 2 6 0 7 8 7 1 5 11 17 18 19 24
15 16 16 17 6 13 9 12 8 6 5 3 1 1 2 2 1 3 3 3 4 5 4 5 3 3 2 2 1 2 2 2 3 5 3 4 5 8 4 9 6 13 14 15 16
13 14 16 14 11 10 9 9 9 4 4 1 1 1 2 1 3 2 3 2 6 5 4 3 5 3 2 2 1 2 2 3 1 2 3 2 1 9 4 6 5 5 10 8 7
16 14 13 12 11 12 11 9 3 6 6 4 3 3 2 3 2 1 1 4 6 4 5 3 1 1 3 2 3 6 3 3 3 2 2 1 3 6 4 3 5 4 4 2 7
18 17 15 14 11 11 10 6 5 4 2 5 2 3 1 1 1 2 1 2 4 5 1 2 2 1 2 4 2 1 3 3 5 3 4 0 1 11 5 5 2 3 2 4 8
23 21 19 16 13 10 7 5 3 3 6 1 2 2 1 4 1 2 2 2 3 4 3 5 5 4 1 1 3 3 2 4 6 2 3 3 6 6 6 2 5 13 8 4 8
28 29 28 20 14 8 2 2 8 8 5 7 1 4 4 2 2 1 5 5 7 9 8 5 2 0 2 2 1 4 2 4 6 2 3 3 7 11 4 6 14 19 12 18 15
27 30 30 26 19 11 2 7 5 5 7 3 7 4 5 3 3 4 2 4 5 2 2 4 3 2 1 1 4 1 4 3 2 1 4 4 5 7 4 2 2 3 18 18 16
28 12 13 19 19 10 6 7 7 11 9 8 9 5 6 6 6 4 5 4 4 4 6 4 3 2 3 6 8 3 1 4 3 4 5 2 6 7 6 4 5 7 7 9 9
25 4 11 21 8 5 6 9 9 7 12 4 2 6 9 8 7 3 8 6 11 12 9 7 5 4 7 3 3 3 5 6 4 6 3 2 7 4 7 9 9 17 14 11 10
10 10 16 27 6 4 3 4 9 7 6 8 9 8 4 8 1 7 5 1 15 8 7 7 2 2 6 3 4 4 5 2 5 2 7 5 5 3 6 7 12 15 14 18 23
8 3 7 18 11 5 8 6 8 15 7 8 4 6 4 5 4 5 6 3 12 6 1 7 3 7 8 6 5 5 6 6 6 3 4 10 8 11 19 18 13 24 28 26 25
11 7 7 5 9 11 7 8 18 14 8 14 4 7 9 7 6 7 3 0 2 7 4 5 6 3 3 2 3 5 5 11 13 15 10 8 15 16 21 19 14 19 20 32 31
9 7 6 6 7 16 18 19 21 17 12 7 9 12 12 20 17 10 10 7 7 3 7 2 4 3 4 1 3 4 9 11 16 10 18 19 27 19 33 32 34 32 23 26 31
24 27 20 8 5 9 12 17 17 13 16 30 22 15 15 28 21 21 12 5 7 13 12 8 6 4 6 2 4 8 17 16 10 8 13 16 28 18 19 15 20 21 20 30 38
Wind_Direction
46 36 27 20 18 19 7 1 6 2 360 349 342 272 253 350 16 24 16 24 17 9 358 28 154 152 150 141 141 142 81 169 188 161 174 164 154 182 188 191 194 202 188 180 182
40 31 16 16 16 9 9 2 359 359 0 356 360 22 283 281 331 14 21 20 24 15 36 104 126 135 124 120 99 95 123 198 153 149 157 167 184 174 182 198 220 215 208 196 183
27 16 8 6 10 5 2 3 1 357 356 0 348 350 16 216 279 3 3 9 34 33 76 113 121 122 87 103 45 60 153 154 172 153 143 156 209 206 178 230 212 206 197 192 191
11 3 359 357 357 358 357 355 354 353 348 0 357 357 32 54 227 357 358 349 153 69 112 122 111 86 79 80 45 82 62 69 129 155 147 178 220 249 216 246 229 204 197 196 197
351 347 348 349 347 348 349 348 346 348 351 355 8 6 33 65 31 9 2 38 187 182 164 154 104 96 93 92 90 82 130 92 107 125 169 263 261 265 256 229 215 202 203 206 207
339 344 339 341 340 338 339 341 338 342 347 353 331 348 29 88 8 23 25 54 153 170 158 160 164 120 109 73 65 97 116 122 91 41 234 285 247 313 262 220 215 213 213 213 213
340 339 338 336 334 333 334 333 329 323 339 339 338 347 49 99 46 51 49 78 83 101 138 128 135 129 115 99 110 116 78 66 22 351 327 340 277 234 233 243 210 216 218 220 221
344 340 338 337 332 329 329 327 325 318 322 319 336 332 93 80 48 37 96 87 87 95 110 111 113 111 80 118 62 73 63 99 105 359 249 351 270 264 234 220 216 220 224 226 223
342 341 340 337 335 330 328 324 320 313 310 312 312 213 157 158 14 40 126 126 108 103 102 105 120 88 105 87 41 15 200 219 299 50 307 187 274 268 221 210 225 226 228 230 228
345 342 340 339 337 336 329 323 307 297 294 258 247 170 189 219 337 57 111 155 143 123 88 78 60 66 40 87 210 190 205 242 248 331 331 236 265 266 254 244 249 241 236 234 233
352 348 343 341 341 342 340 329 309 285 277 198 179 175 190 264 163 21 163 144 146 103 54 23 70 181 144 175 112 123 145 219 219 162 306 232 271 275 254 239 247 248 243 240 237
1 358 350 346 343 349 353 4 19 330 307 294 269 246 232 187 173 20 139 176 128 111 340 36 135 171 126 115 97 64 145 254 270 102 3 342 284 270 256 232 236 250 250 249 242
4 3 360 354 351 357 15 27 3 348 281 280 264 224 231 242 120 2 142 136 95 88 22 153 155 164 169 118 154 67 181 93 267 319 123 317 281 299 305 255 251 251 259 258 247
356 0 4 0 13 1 11 1 356 348 61 274 253 326 275 146 42 57 103 148 59 146 119 96 171 167 139 146 185 207 98 77 9 18 276 2 285 307 331 294 253 256 250 257 247
343 349 354 7 358 1 348 348 346 2 360 338 318 304 5 143 130 45 60 111 130 139 141 171 150 167 161 98 342 133 84 84 78 88 345 16 82 271 337 316 313 272 244 251 221
322 330 336 345 349 350 347 338 359 44 258 328 302 347 12 20 17 354 119 86 110 104 46 104 120 47 109 94 71 145 106 77 70 96 6 261 153 280 243 237 323 350 283 249 186
300 307 314 322 327 335 339 336 33 136 340 286 264 357 152 19 355 18 68 136 159 82 309 43 92 100 121 106 58 146 76 327 343 11 225 349 357 250 300 271 232 330 1 216 203
289 288 290 297 305 317 329 49 123 239 229 168 157 127 203 0 137 2 60 292 244 95 98 152 303 169 330 118 160 155 157 159 223 234 282 21 234 250 218 289 273 238 244 245 226
281 280 277 276 279 276 299 69 206 201 169 155 88 79 307 6 142 38 215 217 209 180 168 131 260 84 36 146 148 167 158 172 108 77 43 261 285 289 249 259 252 253 241 245 239
271 271 266 266 260 238 150 223 232 199 142 147 181 163 211 240 169 174 177 208 199 177 78 217 68 342 89 127 22 146 150 91 6 206 286 284 279 246 327 264 342 262 240 254 245
266 257 246 237 219 187 208 220 221 225 182 170 194 167 201 193 188 218 230 292 190 137 89 128 99 299 31 212 179 148 180 51 115 150 190 241 255 216 228 248 280 277 291 278 250
240 217 223 203 195 204 186 180 204 182 203 244 228 196 186 166 185 232 220 223 171 160 170 198 141 172 217 319 348 317 202 164 138 225 221 158 263 223 236 254 262 273 275 275 279
237 245 196 196 224 228 264 225 204 153 196 177 210 201 192 174 201 196 207 208 178 173 166 192 248 50 340 347 355 215 206 169 83 70 199 157 252 211 245 250 256 261 268 283 292
260 243 182 206 233 248 191 222 221 211 190 177 190 128 136 181 233 221 224 184 190 200 201 147 147 175 195 200 130 189 196 174 140 138 192 228 268 288 280 276 264 266 279 287 291
226 235 219 201 231 228 211 196 224 220 211 193 219 208 167 198 186 207 230 97 182 208 167 140 210 167 278 127 125 195 166 185 199 213 200 244 228 239 253 265 283 289 290 294 294
266 219 225 250 193 202 214 231 235 222 160 220 224 187 203 224 204 190 174 187 195 144 161 170 223 121 298 185 206 274 231 195 215 235 255 264 272 256 269 282 277 280 281 281 287
249 263 261 239 187 187 217 225 228 227 226 225 211 211 214 230 225 238 192 178 213 162 181 157 142 118 254 117 126 292 222 196 202 198 215 232 247 275 271 255 267 278 281 284 293